Wetterdaten: Woche 07.03.16 - 13.03.16 (KW10)
Datum Zeit Temp. I. Temp. A. Feuchte I. Feuchte A. Luftdruck Regen Wind Richtung Sonnenschein UV Solar Taupunkt Windchill Windben
07.03.2016 00:00 22,5 C 0,9 C 43 % 92 % 1003,3 hPa 0,0 l/m 2,4 km/h (1 Bft) S 0,00 h 0,0 UV-I 0 W/m -0,2 C 0,9 C 6,4 km/h (2 Bft)
07.03.2016 01:00 22,4 C 0,7 C 43 % 92 % 1003,2 hPa 0,0 l/m 3,1 km/h (1 Bft) S 0,00 h 0,0 UV-I 0 W/m -0,4 C 0,6 C 7,3 km/h (2 Bft)
07.03.2016 02:00 22,4 C 0,6 C 43 % 92 % 1003,0 hPa 0,0 l/m 1,3 km/h (1 Bft) S 0,00 h 0,0 UV-I 0 W/m -0,4 C 0,6 C 3,8 km/h (1 Bft)
07.03.2016 03:00 22,4 C 0,7 C 44 % 92 % 1002,9 hPa 0,0 l/m 2,8 km/h (1 Bft) S 0,00 h 0,0 UV-I 0 W/m -0,5 C 0,6 C 6,4 km/h (2 Bft)
07.03.2016 04:00 22,6 C 0,7 C 44 % 92 % 1003,4 hPa 0,0 l/m 4,1 km/h (1 Bft) S 0,00 h 0,0 UV-I 0 W/m -0,5 C 0,6 C 7,8 km/h (2 Bft)
07.03.2016 05:00 22,4 C 0,5 C 43 % 92 % 1003,6 hPa 0,0 l/m 3,1 km/h (1 Bft) S 0,00 h 0,0 UV-I 0 W/m -0,6 C 0,4 C 7,3 km/h (2 Bft)
07.03.2016 06:00 22,4 C 0,3 C 44 % 93 % 1003,9 hPa 0,0 l/m 2,9 km/h (1 Bft) S 0,00 h 0,0 UV-I 5 W/m -0,7 C 0,3 C 6,8 km/h (2 Bft)
07.03.2016 07:00 22,4 C 0,3 C 44 % 93 % 1004,2 hPa 0,0 l/m 2,8 km/h (1 Bft) S 0,00 h 0,0 UV-I 22 W/m -0,7 C 0,3 C 6,3 km/h (2 Bft)
07.03.2016 08:00 22,6 C 0,6 C 45 % 93 % 1004,6 hPa 0,0 l/m 2,8 km/h (1 Bft) S 0,02 h 0,5 UV-I 80 W/m -0,4 C 0,5 C 6,9 km/h (2 Bft)
07.03.2016 09:00 23,0 C 1,0 C 46 % 93 % 1004,8 hPa 0,0 l/m 1,4 km/h (1 Bft) S 0,27 h 0,7 UV-I 129 W/m 0,0 C 1,0 C 4,3 km/h (1 Bft)
07.03.2016 10:00 22,9 C 2,7 C 45 % 88 % 1004,6 hPa 0,0 l/m 3,7 km/h (1 Bft) W-SW 1,00 h 1,6 UV-I 435 W/m 0,9 C 2,6 C 7,4 km/h (2 Bft)
07.03.2016 11:00 22,9 C 2,8 C 45 % 83 % 1004,7 hPa 0,0 l/m 2,6 km/h (1 Bft) S 0,25 h 1,3 UV-I 152 W/m 0,1 C 2,8 C 6,1 km/h (2 Bft)
07.03.2016 12:00 22,8 C 3,4 C 46 % 78 % 1004,7 hPa 0,0 l/m 2,1 km/h (1 Bft) S-SO 0,57 h 1,5 UV-I 274 W/m -0,2 C 3,2 C 4,2 km/h (1 Bft)
07.03.2016 13:00 22,9 C 3,7 C 46 % 74 % 1004,5 hPa 0,0 l/m 1,5 km/h (1 Bft) S 0,85 h 1,5 UV-I 262 W/m -0,4 C 3,7 C 3,6 km/h (1 Bft)
07.03.2016 14:00 23,1 C 2,5 C 44 % 83 % 1004,7 hPa 0,2 l/m 3,0 km/h (1 Bft) W 0,00 h 0,7 UV-I 57 W/m -0,2 C 2,4 C 6,1 km/h (2 Bft)
07.03.2016 15:00 23,3 C 1,1 C 43 % 92 % 1004,9 hPa 0,6 l/m 0,6 km/h (0 Bft) W 0,18 h 0,7 UV-I 97 W/m -0,1 C 1,1 C 1,6 km/h (1 Bft)
07.03.2016 16:00 23,4 C 3,0 C 42 % 82 % 1004,8 hPa 0,0 l/m 0,1 km/h (0 Bft) N-NO 0,53 h 0,6 UV-I 170 W/m 0,3 C 3,0 C 0,2 km/h (0 Bft)
07.03.2016 17:00 23,3 C 2,2 C 45 % 85 % 1005,3 hPa 0,0 l/m 0,0 km/h (0 Bft) N 0,00 h 0,0 UV-I 23 W/m 0,1 C 2,2 C 0,0 km/h (0 Bft)
07.03.2016 18:00 23,2 C 1,4 C 43 % 88 % 1006,1 hPa 0,0 l/m 0,0 km/h (0 Bft) N 0,00 h 0,0 UV-I 0 W/m -0,4 C 1,4 C 0,0 km/h (0 Bft)
07.03.2016 19:00 23,3 C 0,6 C 45 % 90 % 1006,6 hPa 0,0 l/m 0,0 km/h (0 Bft) N 0,00 h 0,0 UV-I 0 W/m -0,8 C 0,6 C 0,0 km/h (0 Bft)
07.03.2016 20:00 23,2 C 0,4 C 45 % 93 % 1007,2 hPa 0,0 l/m 0,0 km/h (0 Bft) N 0,00 h 0,0 UV-I 0 W/m -0,6 C 0,4 C 0,0 km/h (0 Bft)
07.03.2016 21:00 23,3 C 0,0 C 44 % 93 % 1007,6 hPa 0,0 l/m 0,0 km/h (0 Bft) N 0,00 h 0,0 UV-I 0 W/m -1,0 C 0,0 C 0,0 km/h (0 Bft)
07.03.2016 22:00 23,0 C -0,5 C 44 % 93 % 1007,8 hPa 0,0 l/m 0,0 km/h (0 Bft) N 0,00 h 0,0 UV-I 0 W/m -1,5 C -0,5 C 0,0 km/h (0 Bft)
07.03.2016 23:00 22,7 C -0,8 C 44 % 94 % 1008,1 hPa 0,0 l/m 0,0 km/h (0 Bft) N 0,00 h 0,0 UV-I 0 W/m -1,7 C -0,8 C 0,0 km/h (0 Bft)
08.03.2016 00:00 22,6 C -0,8 C 44 % 95 % 1008,5 hPa 0,0 l/m 0,0 km/h (0 Bft) N 0,00 h 0,0 UV-I 0 W/m -1,6 C -0,8 C 0,0 km/h (0 Bft)
08.03.2016 01:00 22,6 C -1,1 C 45 % 95 % 1008,8 hPa 0,0 l/m 0,0 km/h (0 Bft) N 0,00 h 0,0 UV-I 0 W/m -1,8 C -1,1 C 0,0 km/h (0 Bft)
08.03.2016 02:00 22,5 C -1,7 C 45 % 95 % 1009,1 hPa 0,0 l/m 0,0 km/h (0 Bft) N 0,00 h 0,0 UV-I 0 W/m -2,4 C -1,7 C 0,0 km/h (0 Bft)
08.03.2016 03:00 22,4 C -2,0 C 46 % 96 % 1009,4 hPa 0,0 l/m 0,0 km/h (0 Bft) N 0,00 h 0,0 UV-I 0 W/m -2,6 C -2,0 C 0,0 km/h (0 Bft)
08.03.2016 04:00 22,4 C -2,2 C 45 % 96 % 1010,0 hPa 0,0 l/m 0,0 km/h (0 Bft) N 0,00 h 0,0 UV-I 0 W/m -2,7 C -2,2 C 0,0 km/h (0 Bft)
08.03.2016 05:00 22,2 C -2,2 C 45 % 96 % 1010,5 hPa 0,0 l/m 0,0 km/h (0 Bft) N 0,00 h 0,0 UV-I 0 W/m -2,7 C -2,2 C 0,0 km/h (0 Bft)
08.03.2016 06:00 22,2 C -2,1 C 45 % 96 % 1011,3 hPa 0,0 l/m 0,0 km/h (0 Bft) N 0,00 h 0,0 UV-I 7 W/m -2,7 C -2,1 C 0,0 km/h (0 Bft)
08.03.2016 07:00 22,2 C -1,9 C 45 % 96 % 1012,1 hPa 0,0 l/m 0,0 km/h (0 Bft) N 0,00 h 0,0 UV-I 27 W/m -2,4 C -1,9 C 0,0 km/h (0 Bft)
08.03.2016 08:00 22,3 C -1,3 C 46 % 97 % 1012,9 hPa 0,0 l/m 0,0 km/h (0 Bft) N 0,00 h 0,5 UV-I 65 W/m -1,8 C -1,3 C 0,2 km/h (0 Bft)
08.03.2016 09:00 22,6 C -1,0 C 47 % 96 % 1013,6 hPa 0,0 l/m 0,1 km/h (0 Bft) NW 0,18 h 0,7 UV-I 99 W/m -1,5 C -1,0 C 0,7 km/h (0 Bft)
08.03.2016 10:00 22,8 C 0,1 C 47 % 94 % 1014,0 hPa 0,0 l/m 0,3 km/h (0 Bft) N 1,00 h 1,2 UV-I 217 W/m -0,7 C 0,1 C 1,1 km/h (0 Bft)
08.03.2016 11:00 22,8 C 2,6 C 46 % 89 % 1014,3 hPa 0,0 l/m 1,3 km/h (1 Bft) N-NW 1,00 h 1,9 UV-I 412 W/m 1,0 C 2,6 C 3,6 km/h (1 Bft)
08.03.2016 12:00 22,8 C 4,8 C 47 % 80 % 1014,4 hPa 0,0 l/m 2,4 km/h (1 Bft) N 1,00 h 1,9 UV-I 326 W/m 1,6 C 4,7 C 5,5 km/h (1 Bft)
08.03.2016 13:00 22,8 C 5,1 C 47 % 76 % 1014,6 hPa 0,0 l/m 2,5 km/h (1 Bft) N-NO 0,83 h 1,2 UV-I 267 W/m 1,1 C 5,1 C 5,2 km/h (1 Bft)
08.03.2016 14:00 22,8 C 5,3 C 45 % 68 % 1014,8 hPa 0,0 l/m 4,9 km/h (1 Bft) N 0,72 h 1,2 UV-I 212 W/m -0,2 C 5,0 C 9,0 km/h (2 Bft)
08.03.2016 15:00 23,2 C 5,0 C 43 % 63 % 1015,2 hPa 0,0 l/m 2,8 km/h (1 Bft) NW 0,33 h 0,8 UV-I 149 W/m -1,5 C 5,0 C 5,5 km/h (1 Bft)
08.03.2016 16:00 23,2 C 4,6 C 41 % 65 % 1015,6 hPa 0,0 l/m 1,7 km/h (1 Bft) N 0,00 h 0,5 UV-I 82 W/m -1,6 C 4,6 C 3,8 km/h (1 Bft)
08.03.2016 17:00 23,2 C 4,4 C 42 % 63 % 1016,0 hPa 0,0 l/m 0,9 km/h (0 Bft) NW 0,00 h 0,0 UV-I 40 W/m -2,0 C 4,4 C 2,9 km/h (1 Bft)
08.03.2016 18:00 23,3 C 3,0 C 44 % 68 % 1016,7 hPa 0,0 l/m 0,1 km/h (0 Bft) N-NW 0,00 h 0,0 UV-I 5 W/m -2,4 C 3,0 C 0,6 km/h (0 Bft)
08.03.2016 19:00 23,4 C 1,3 C 43 % 76 % 1017,4 hPa 0,0 l/m 0,0 km/h (0 Bft) N 0,00 h 0,0 UV-I 0 W/m -2,5 C 1,3 C 0,0 km/h (0 Bft)
08.03.2016 20:00 23,2 C 0,3 C 42 % 83 % 1017,9 hPa 0,0 l/m 0,0 km/h (0 Bft) N 0,00 h 0,0 UV-I 0 W/m -2,3 C 0,3 C 0,0 km/h (0 Bft)
08.03.2016 21:00 23,2 C -0,1 C 43 % 86 % 1018,4 hPa 0,0 l/m 0,0 km/h (0 Bft) N 0,00 h 0,0 UV-I 0 W/m -2,2 C -0,1 C 0,0 km/h (0 Bft)
08.03.2016 22:00 23,1 C -0,6 C 43 % 88 % 1018,7 hPa 0,0 l/m 0,0 km/h (0 Bft) N 0,00 h 0,0 UV-I 0 W/m -2,3 C -0,6 C 0,0 km/h (0 Bft)
08.03.2016 23:00 22,8 C -1,1 C 44 % 90 % 1018,5 hPa 0,0 l/m 0,0 km/h (0 Bft) N 0,00 h 0,0 UV-I 0 W/m -2,4 C -1,1 C 0,0 km/h (0 Bft)
09.03.2016 00:00 22,6 C -1,6 C 44 % 91 % 1018,1 hPa 0,0 l/m 0,0 km/h (0 Bft) N 0,00 h 0,0 UV-I 0 W/m -2,8 C -1,6 C 0,0 km/h (0 Bft)
09.03.2016 01:00 22,5 C -2,1 C 44 % 93 % 1017,9 hPa 0,0 l/m 0,0 km/h (0 Bft) N 0,00 h 0,0 UV-I 0 W/m -3,1 C -2,1 C 0,1 km/h (0 Bft)
09.03.2016 02:00 22,4 C -2,2 C 45 % 95 % 1017,8 hPa 0,0 l/m 0,0 km/h (0 Bft) N 0,00 h 0,0 UV-I 0 W/m -2,9 C -2,2 C 0,2 km/h (0 Bft)
09.03.2016 03:00 22,3 C -2,1 C 45 % 95 % 1017,3 hPa 0,0 l/m 0,0 km/h (0 Bft) N 0,00 h 0,0 UV-I 0 W/m -2,8 C -2,1 C 0,1 km/h (0 Bft)
09.03.2016 04:00 22,3 C -2,4 C 44 % 96 % 1016,8 hPa 0,0 l/m 0,0 km/h (0 Bft) N 0,00 h 0,0 UV-I 0 W/m -3,0 C -2,4 C 0,0 km/h (0 Bft)
09.03.2016 05:00 22,2 C -3,4 C 45 % 96 % 1016,4 hPa 0,0 l/m 0,0 km/h (0 Bft) N 0,00 h 0,0 UV-I 0 W/m -4,0 C -3,4 C 0,1 km/h (0 Bft)
09.03.2016 06:00 22,2 C -3,6 C 45 % 96 % 1016,1 hPa 0,0 l/m 0,0 km/h (0 Bft) N 0,00 h 0,0 UV-I 6 W/m -4,2 C -3,6 C 0,0 km/h (0 Bft)
09.03.2016 07:00 22,2 C -3,6 C 45 % 96 % 1015,7 hPa 0,0 l/m 0,0 km/h (0 Bft) N 0,00 h 0,5 UV-I 52 W/m -4,1 C -3,6 C 0,0 km/h (0 Bft)
09.03.2016 08:00 22,3 C -2,2 C 45 % 96 % 1015,2 hPa 0,0 l/m 0,0 km/h (0 Bft) N 1,00 h 0,7 UV-I 222 W/m -2,8 C -2,2 C 0,0 km/h (0 Bft)
09.03.2016 09:00 22,5 C 0,6 C 46 % 90 % 1014,5 hPa 0,0 l/m 0,4 km/h (0 Bft) NO 1,00 h 1,4 UV-I 386 W/m -0,8 C 0,6 C 1,1 km/h (1 Bft)
09.03.2016 10:00 22,6 C 2,7 C 46 % 81 % 1013,8 hPa 0,0 l/m 5,0 km/h (1 Bft) O-SO 1,00 h 2,0 UV-I 488 W/m -0,2 C 2,2 C 8,7 km/h (2 Bft)
09.03.2016 11:00 22,8 C 2,4 C 46 % 79 % 1013,3 hPa 0,0 l/m 8,5 km/h (2 Bft) O-SO 1,00 h 2,5 UV-I 547 W/m -0,8 C 0,1 C 16,5 km/h (3 Bft)
09.03.2016 12:00 22,7 C 2,9 C 46 % 79 % 1012,5 hPa 0,0 l/m 6,7 km/h (2 Bft) SO 1,00 h 2,5 UV-I 574 W/m -0,5 C 1,3 C 13,8 km/h (3 Bft)
09.03.2016 13:00 22,5 C 3,5 C 44 % 75 % 1011,4 hPa 0,0 l/m 8,9 km/h (2 Bft) SO 0,98 h 2,1 UV-I 453 W/m -0,5 C 0,8 C 17,0 km/h (3 Bft)
09.03.2016 14:00 21,7 C 4,5 C 38 % 71 % 1010,4 hPa 0,0 l/m 9,9 km/h (2 Bft) O-SO 1,00 h 1,8 UV-I 469 W/m -0,4 C 1,4 C 18,7 km/h (3 Bft)
09.03.2016 15:00 22,2 C 4,9 C 39 % 70 % 1009,9 hPa 0,0 l/m 8,7 km/h (2 Bft) O 0,92 h 1,1 UV-I 336 W/m -0,2 C 2,6 C 16,5 km/h (3 Bft)
09.03.2016 16:00 22,4 C 3,8 C 38 % 73 % 1009,7 hPa 0,0 l/m 7,3 km/h (2 Bft) O-NO 0,37 h 0,6 UV-I 134 W/m -0,6 C 2,2 C 14,6 km/h (3 Bft)
09.03.2016 17:00 22,5 C 2,4 C 39 % 80 % 1009,8 hPa 0,0 l/m 8,1 km/h (2 Bft) O-NO 0,00 h 0,0 UV-I 36 W/m -0,8 C 0,5 C 14,1 km/h (3 Bft)
09.03.2016 18:00 22,7 C 1,2 C 39 % 85 % 1010,0 hPa 0,0 l/m 7,0 km/h (2 Bft) O-NO 0,00 h 0,0 UV-I 5 W/m -1,1 C 0,0 C 11,9 km/h (2 Bft)
09.03.2016 19:00 22,8 C 0,8 C 40 % 87 % 1010,2 hPa 0,0 l/m 6,2 km/h (2 Bft) O-NO 0,00 h 0,0 UV-I 0 W/m -1,1 C -0,4 C 11,9 km/h (2 Bft)
09.03.2016 20:00 22,7 C 0,8 C 40 % 89 % 1010,2 hPa 0,0 l/m 3,7 km/h (1 Bft) O 0,00 h 0,0 UV-I 0 W/m -0,9 C 0,4 C 7,9 km/h (2 Bft)
09.03.2016 21:00 22,9 C 0,9 C 41 % 88 % 1010,3 hPa 0,0 l/m 2,5 km/h (1 Bft) O 0,00 h 0,0 UV-I 0 W/m -0,8 C 0,7 C 6,6 km/h (2 Bft)
09.03.2016 22:00 23,0 C 0,8 C 41 % 88 % 1010,4 hPa 0,0 l/m 2,2 km/h (1 Bft) O 0,00 h 0,0 UV-I 0 W/m -1,0 C 0,8 C 6,8 km/h (2 Bft)
09.03.2016 23:00 22,5 C 0,7 C 41 % 87 % 1010,7 hPa 0,0 l/m 1,4 km/h (1 Bft) O-NO 0,00 h 0,0 UV-I 0 W/m -1,2 C 0,7 C 5,1 km/h (1 Bft)
10.03.2016 00:00 22,3 C 0,8 C 42 % 87 % 1011,0 hPa 0,0 l/m 2,0 km/h (1 Bft) O 0,00 h 0,0 UV-I 0 W/m -1,1 C 0,7 C 5,9 km/h (2 Bft)
10.03.2016 01:00 22,2 C 0,6 C 42 % 87 % 1011,6 hPa 0,0 l/m 2,3 km/h (1 Bft) O 0,00 h 0,0 UV-I 0 W/m -1,3 C 0,6 C 7,3 km/h (2 Bft)
10.03.2016 02:00 22,1 C 0,5 C 42 % 87 % 1012,0 hPa 0,0 l/m 2,0 km/h (1 Bft) O 0,00 h 0,0 UV-I 0 W/m -1,4 C 0,5 C 5,8 km/h (2 Bft)
10.03.2016 03:00 21,8 C 0,2 C 43 % 88 % 1012,4 hPa 0,0 l/m 2,6 km/h (1 Bft) O-NO 0,00 h 0,0 UV-I 0 W/m -1,5 C 0,2 C 6,8 km/h (2 Bft)
10.03.2016 04:00 21,2 C -0,3 C 45 % 89 % 1013,0 hPa 0,0 l/m 0,8 km/h (0 Bft) NO 0,00 h 0,0 UV-I 0 W/m -1,8 C -0,3 C 2,4 km/h (1 Bft)
10.03.2016 05:00 21,2 C -0,9 C 45 % 90 % 1013,8 hPa 0,0 l/m 0,9 km/h (0 Bft) N 0,00 h 0,0 UV-I 0 W/m -2,4 C -0,9 C 2,0 km/h (1 Bft)
10.03.2016 06:00 21,5 C -0,9 C 45 % 92 % 1014,5 hPa 0,0 l/m 1,3 km/h (1 Bft) N 0,00 h 0,0 UV-I 8 W/m -2,0 C -0,9 C 2,9 km/h (1 Bft)
10.03.2016 07:00 22,1 C -0,0 C 44 % 92 % 1015,2 hPa 0,0 l/m 3,7 km/h (1 Bft) N 0,00 h 0,0 UV-I 32 W/m -1,1 C -0,2 C 6,2 km/h (2 Bft)
10.03.2016 08:00 22,1 C 1,8 C 42 % 89 % 1015,7 hPa 0,0 l/m 0,1 km/h (0 Bft) N-NO 0,38 h 0,7 UV-I 148 W/m 0,2 C 1,8 C 0,4 km/h (0 Bft)
10.03.2016 09:00 22,2 C 3,6 C 42 % 81 % 1016,3 hPa 0,0 l/m 2,4 km/h (1 Bft) O-NO 0,88 h 0,9 UV-I 190 W/m 0,6 C 3,3 C 6,0 km/h (2 Bft)
10.03.2016 10:00 22,1 C 4,0 C 40 % 78 % 1016,9 hPa 0,0 l/m 3,3 km/h (1 Bft) O-NO 1,00 h 1,1 UV-I 174 W/m 0,5 C 3,8 C 7,2 km/h (2 Bft)
10.03.2016 11:00 22,3 C 4,5 C 40 % 76 % 1017,4 hPa 0,0 l/m 1,8 km/h (1 Bft) O 1,00 h 1,5 UV-I 250 W/m 0,6 C 4,3 C 5,0 km/h (1 Bft)
10.03.2016 12:00 22,2 C 5,9 C 39 % 72 % 1017,6 hPa 0,0 l/m 1,6 km/h (1 Bft) O 1,00 h 1,9 UV-I 330 W/m 1,3 C 5,8 C 4,5 km/h (1 Bft)
10.03.2016 13:00 21,9 C 5,6 C 38 % 71 % 1017,8 hPa 0,0 l/m 1,9 km/h (1 Bft) O-NO 1,00 h 1,3 UV-I 222 W/m 0,9 C 5,5 C 4,9 km/h (1 Bft)
10.03.2016 14:00 21,8 C 5,8 C 38 % 72 % 1018,0 hPa 0,0 l/m 2,3 km/h (1 Bft) N-NO 1,00 h 1,1 UV-I 196 W/m 1,0 C 5,5 C 5,0 km/h (1 Bft)
10.03.2016 15:00 21,8 C 6,1 C 38 % 71 % 1018,4 hPa 0,0 l/m 7,3 km/h (2 Bft) N 0,67 h 0,8 UV-I 155 W/m 1,3 C 4,9 C 11,0 km/h (2 Bft)
10.03.2016 16:00 21,7 C 5,5 C 38 % 72 % 1018,9 hPa 0,0 l/m 7,9 km/h (2 Bft) N-NO 0,02 h 0,5 UV-I 107 W/m 0,9 C 3,8 C 12,8 km/h (3 Bft)
10.03.2016 17:00 21,7 C 4,9 C 38 % 73 % 1019,4 hPa 0,0 l/m 4,3 km/h (1 Bft) N-NO 0,00 h 0,0 UV-I 32 W/m 0,4 C 4,4 C 7,2 km/h (2 Bft)
10.03.2016 18:00 21,7 C 4,5 C 38 % 76 % 1020,2 hPa 0,0 l/m 4,5 km/h (1 Bft) N 0,00 h 0,0 UV-I 28 W/m 0,6 C 3,9 C 7,7 km/h (2 Bft)
10.03.2016 19:00 21,9 C 3,7 C 40 % 82 % 1020,9 hPa 0,0 l/m 9,7 km/h (2 Bft) N 0,00 h 0,0 UV-I 0 W/m 0,9 C 0,9 C 13,6 km/h (3 Bft)
10.03.2016 20:00 21,9 C 3,2 C 39 % 85 % 1021,3 hPa 0,0 l/m 2,5 km/h (1 Bft) N 0,00 h 0,0 UV-I 0 W/m 0,9 C 3,1 C 4,6 km/h (1 Bft)
10.03.2016 21:00 22,2 C 3,1 C 40 % 85 % 1021,7 hPa 0,0 l/m 4,8 km/h (1 Bft) N 0,00 h 0,0 UV-I 0 W/m 0,8 C 2,4 C 7,7 km/h (2 Bft)
10.03.2016 22:00 22,3 C 3,0 C 40 % 86 % 1022,0 hPa 0,0 l/m 1,4 km/h (1 Bft) N-NO 0,00 h 0,0 UV-I 0 W/m 1,0 C 3,1 C 2,9 km/h (1 Bft)
10.03.2016 23:00 22,4 C 2,9 C 40 % 87 % 1022,2 hPa 0,0 l/m 0,0 km/h (0 Bft) N 0,00 h 0,0 UV-I 0 W/m 1,0 C 2,9 C 0,0 km/h (0 Bft)
11.03.2016 00:00 22,1 C 2,8 C 40 % 88 % 1022,5 hPa 0,0 l/m 0,0 km/h (0 Bft) N 0,00 h 0,0 UV-I 0 W/m 1,0 C 2,8 C 0,0 km/h (0 Bft)
11.03.2016 01:00 21,9 C 2,5 C 41 % 88 % 1022,7 hPa 0,0 l/m 0,0 km/h (0 Bft) N 0,00 h 0,0 UV-I 0 W/m 0,8 C 2,5 C 0,0 km/h (0 Bft)
11.03.2016 02:00 21,8 C 2,0 C 41 % 89 % 1022,8 hPa 0,0 l/m 0,0 km/h (0 Bft) N 0,00 h 0,0 UV-I 0 W/m 0,4 C 2,0 C 0,0 km/h (0 Bft)
11.03.2016 03:00 21,7 C 1,5 C 41 % 91 % 1023,0 hPa 0,0 l/m 0,0 km/h (0 Bft) N 0,00 h 0,0 UV-I 0 W/m 0,1 C 1,5 C 0,3 km/h (0 Bft)
11.03.2016 04:00 21,7 C 1,7 C 41 % 92 % 1023,2 hPa 0,0 l/m 0,0 km/h (0 Bft) N 0,00 h 0,0 UV-I 0 W/m 0,6 C 1,7 C 0,2 km/h (0 Bft)
11.03.2016 05:00 21,7 C 2,0 C 41 % 92 % 1023,5 hPa 0,0 l/m 1,0 km/h (0 Bft) N 0,00 h 0,0 UV-I 0 W/m 0,8 C 2,0 C 3,6 km/h (1 Bft)
11.03.2016 06:00 21,7 C 2,0 C 42 % 90 % 1024,0 hPa 0,0 l/m 2,5 km/h (1 Bft) N 0,00 h 0,0 UV-I 12 W/m 0,6 C 2,0 C 6,9 km/h (2 Bft)
11.03.2016 07:00 21,8 C 2,0 C 42 % 89 % 1024,6 hPa 0,0 l/m 1,2 km/h (1 Bft) N-NW 0,15 h 0,5 UV-I 86 W/m 0,4 C 2,0 C 3,7 km/h (1 Bft)
11.03.2016 08:00 21,9 C 3,4 C 42 % 83 % 1025,1 hPa 0,0 l/m 4,9 km/h (1 Bft) N-NO 0,10 h 0,6 UV-I 127 W/m 0,7 C 2,6 C 8,0 km/h (2 Bft)
11.03.2016 09:00 21,8 C 5,0 C 40 % 73 % 1025,2 hPa 0,0 l/m 10,2 km/h (2 Bft) N-NO 0,92 h 1,4 UV-I 316 W/m 0,5 C 2,2 C 16,2 km/h (3 Bft)
11.03.2016 10:00 21,7 C 6,2 C 39 % 67 % 1025,2 hPa 0,0 l/m 11,4 km/h (2 Bft) N-NO 0,98 h 1,7 UV-I 297 W/m 0,5 C 2,6 C 18,1 km/h (3 Bft)
11.03.2016 11:00 21,6 C 6,3 C 39 % 66 % 1025,2 hPa 0,0 l/m 11,8 km/h (2 Bft) N-NO 0,98 h 1,6 UV-I 223 W/m 0,4 C 2,5 C 17,4 km/h (3 Bft)
11.03.2016 12:00 21,6 C 5,9 C 39 % 68 % 1025,4 hPa 0,0 l/m 9,4 km/h (2 Bft) N-NO 0,27 h 1,2 UV-I 147 W/m 0,4 C 3,3 C 15,1 km/h (3 Bft)
11.03.2016 13:00 21,5 C 5,4 C 38 % 73 % 1025,3 hPa 0,0 l/m 11,5 km/h (2 Bft) N-NO 0,27 h 1,1 UV-I 144 W/m 1,0 C 1,7 C 17,0 km/h (3 Bft)
11.03.2016 14:00 21,4 C 5,4 C 38 % 70 % 1025,2 hPa 0,0 l/m 10,3 km/h (2 Bft) N-NO 0,25 h 0,9 UV-I 124 W/m 0,4 C 2,3 C 16,8 km/h (3 Bft)
11.03.2016 15:00 21,4 C 5,2 C 38 % 71 % 1025,2 hPa 0,0 l/m 10,2 km/h (2 Bft) N-NO 0,00 h 0,6 UV-I 87 W/m 0,4 C 2,2 C 15,7 km/h (3 Bft)
11.03.2016 16:00 21,4 C 4,7 C 38 % 73 % 1025,5 hPa 0,0 l/m 7,6 km/h (2 Bft) N-NO 0,00 h 0,0 UV-I 36 W/m 0,2 C 3,3 C 13,0 km/h (3 Bft)
11.03.2016 17:00 21,3 C 4,4 C 37 % 73 % 1025,8 hPa 0,0 l/m 7,5 km/h (2 Bft) N-NO 0,00 h 0,0 UV-I 11 W/m -0,1 C 3,0 C 11,8 km/h (2 Bft)
11.03.2016 18:00 21,5 C 3,9 C 37 % 74 % 1026,1 hPa 0,0 l/m 7,4 km/h (2 Bft) N 0,00 h 0,0 UV-I 0 W/m -0,2 C 2,6 C 12,0 km/h (2 Bft)
11.03.2016 19:00 21,8 C 3,5 C 38 % 77 % 1026,6 hPa 0,0 l/m 9,6 km/h (2 Bft) N 0,00 h 0,0 UV-I 0 W/m -0,2 C 0,6 C 15,2 km/h (3 Bft)
11.03.2016 20:00 21,8 C 3,2 C 38 % 78 % 1027,1 hPa 0,0 l/m 10,1 km/h (2 Bft) N-NO 0,00 h 0,0 UV-I 0 W/m -0,2 C -0,0 C 15,1 km/h (3 Bft)
11.03.2016 21:00 22,0 C 3,0 C 38 % 79 % 1027,3 hPa 0,0 l/m 0,7 km/h (0 Bft) N-NO 0,00 h 0,0 UV-I 0 W/m -0,2 C 3,0 C 1,7 km/h (1 Bft)
11.03.2016 22:00 22,2 C 2,8 C 38 % 79 % 1027,5 hPa 0,0 l/m 0,8 km/h (0 Bft) N-NO 0,00 h 0,0 UV-I 0 W/m -0,5 C 2,7 C 1,6 km/h (1 Bft)
11.03.2016 23:00 22,0 C 2,6 C 39 % 80 % 1027,6 hPa 0,0 l/m 0,1 km/h (0 Bft) N-NO 0,00 h 0,0 UV-I 0 W/m -0,5 C 2,6 C 0,6 km/h (0 Bft)
12.03.2016 00:00 21,8 C 2,4 C 39 % 80 % 1027,4 hPa 0,0 l/m 0,1 km/h (0 Bft) NO 0,00 h 0,0 UV-I 0 W/m -0,7 C 2,4 C 0,5 km/h (0 Bft)
12.03.2016 01:00 21,6 C 2,3 C 39 % 80 % 1027,3 hPa 0,0 l/m 0,0 km/h (0 Bft) N 0,00 h 0,0 UV-I 0 W/m -0,8 C 2,3 C 0,0 km/h (0 Bft)
12.03.2016 02:00 21,6 C 2,1 C 40 % 81 % 1027,3 hPa 0,0 l/m 0,0 km/h (0 Bft) N 0,00 h 0,0 UV-I 0 W/m -0,8 C 2,1 C 0,0 km/h (0 Bft)
12.03.2016 03:00 21,5 C 1,9 C 40 % 83 % 1027,1 hPa 0,0 l/m 0,1 km/h (0 Bft) N 0,00 h 0,0 UV-I 0 W/m -0,7 C 1,9 C 0,5 km/h (0 Bft)
12.03.2016 04:00 21,5 C 1,8 C 40 % 84 % 1027,1 hPa 0,0 l/m 0,3 km/h (0 Bft) N 0,00 h 0,0 UV-I 0 W/m -0,5 C 1,8 C 0,3 km/h (0 Bft)
12.03.2016 05:00 21,5 C 1,7 C 40 % 86 % 1027,2 hPa 0,0 l/m 0,2 km/h (0 Bft) N 0,00 h 0,0 UV-I 0 W/m -0,5 C 1,7 C 0,6 km/h (0 Bft)
12.03.2016 06:00 21,4 C 1,5 C 40 % 87 % 1027,6 hPa 0,0 l/m 0,0 km/h (0 Bft) N 0,00 h 0,0 UV-I 10 W/m -0,4 C 1,5 C 0,3 km/h (0 Bft)
12.03.2016 07:00 21,7 C 1,7 C 41 % 86 % 1028,1 hPa 0,0 l/m 0,1 km/h (0 Bft) NO 0,00 h 0,0 UV-I 27 W/m -0,4 C 1,7 C 0,8 km/h (0 Bft)
12.03.2016 08:00 21,8 C 2,6 C 40 % 83 % 1028,2 hPa 0,0 l/m 1,1 km/h (1 Bft) N-NO 0,00 h 0,6 UV-I 108 W/m 0,0 C 2,5 C 2,8 km/h (1 Bft)
12.03.2016 09:00 21,9 C 3,5 C 41 % 79 % 1028,2 hPa 0,0 l/m 1,2 km/h (1 Bft) O-NO 0,28 h 0,9 UV-I 139 W/m 0,2 C 3,4 C 3,2 km/h (1 Bft)
12.03.2016 10:00 21,8 C 3,8 C 40 % 78 % 1028,4 hPa 0,0 l/m 2,6 km/h (1 Bft) O 0,90 h 1,3 UV-I 175 W/m 0,3 C 3,6 C 7,1 km/h (2 Bft)
12.03.2016 11:00 21,7 C 3,8 C 39 % 79 % 1028,4 hPa 0,0 l/m 2,5 km/h (1 Bft) O 0,85 h 1,4 UV-I 182 W/m 0,5 C 3,8 C 6,7 km/h (2 Bft)
12.03.2016 12:00 21,8 C 4,4 C 38 % 79 % 1028,1 hPa 0,0 l/m 2,8 km/h (1 Bft) O-SO 1,00 h 1,5 UV-I 207 W/m 1,0 C 4,3 C 6,6 km/h (2 Bft)
12.03.2016 13:00 22,0 C 4,6 C 38 % 78 % 1027,9 hPa 0,0 l/m 1,3 km/h (1 Bft) O-NO 0,28 h 1,1 UV-I 134 W/m 1,0 C 4,5 C 4,7 km/h (1 Bft)
12.03.2016 14:00 21,7 C 4,4 C 37 % 79 % 1027,8 hPa 0,0 l/m 1,1 km/h (1 Bft) O-NO 0,00 h 0,6 UV-I 62 W/m 1,1 C 4,3 C 3,1 km/h (1 Bft)
12.03.2016 15:00 21,6 C 4,0 C 37 % 81 % 1028,0 hPa 0,0 l/m 1,9 km/h (1 Bft) O-NO 0,00 h 0,5 UV-I 52 W/m 1,1 C 3,9 C 5,1 km/h (1 Bft)
12.03.2016 16:00 21,5 C 3,8 C 37 % 82 % 1028,1 hPa 0,0 l/m 1,7 km/h (1 Bft) O 0,00 h 0,0 UV-I 37 W/m 1,0 C 3,7 C 4,3 km/h (1 Bft)
12.03.2016 17:00 21,4 C 3,6 C 36 % 83 % 1028,2 hPa 0,0 l/m 0,4 km/h (0 Bft) O-NO 0,00 h 0,0 UV-I 17 W/m 1,0 C 3,6 C 1,2 km/h (1 Bft)
12.03.2016 18:00 21,7 C 3,3 C 36 % 84 % 1028,8 hPa 0,0 l/m 0,5 km/h (0 Bft) NO 0,00 h 0,0 UV-I 0 W/m 0,9 C 3,3 C 1,4 km/h (1 Bft)
12.03.2016 19:00 21,8 C 3,0 C 38 % 84 % 1029,4 hPa 0,0 l/m 2,2 km/h (1 Bft) O-NO 0,00 h 0,0 UV-I 0 W/m 0,7 C 3,0 C 5,9 km/h (2 Bft)
12.03.2016 20:00 21,7 C 2,7 C 37 % 86 % 1029,9 hPa 0,0 l/m 3,4 km/h (1 Bft) O-NO 0,00 h 0,0 UV-I 0 W/m 0,5 C 2,4 C 7,4 km/h (2 Bft)
12.03.2016 21:00 21,8 C 2,2 C 38 % 86 % 1030,4 hPa 0,0 l/m 3,0 km/h (1 Bft) O-NO 0,00 h 0,0 UV-I 0 W/m 0,2 C 2,0 C 7,0 km/h (2 Bft)
12.03.2016 22:00 21,6 C 1,9 C 38 % 86 % 1030,5 hPa 0,0 l/m 6,0 km/h (2 Bft) N-NO 0,00 h 0,0 UV-I 0 W/m -0,2 C 0,8 C 10,6 km/h (2 Bft)
12.03.2016 23:00 21,4 C 1,6 C 38 % 85 % 1030,4 hPa 0,0 l/m 4,6 km/h (1 Bft) N-NO 0,00 h 0,0 UV-I 0 W/m -0,7 C 0,9 C 8,7 km/h (2 Bft)
13.03.2016 00:00 21,4 C 1,5 C 38 % 86 % 1030,3 hPa 0,0 l/m 2,6 km/h (1 Bft) N 0,00 h 0,0 UV-I 0 W/m -0,6 C 1,5 C 5,8 km/h (2 Bft)
13.03.2016 01:00 21,3 C 1,6 C 38 % 87 % 1030,1 hPa 0,0 l/m 6,7 km/h (2 Bft) N 0,00 h 0,0 UV-I 0 W/m -0,4 C 0,5 C 10,3 km/h (2 Bft)
13.03.2016 02:00 21,3 C 1,4 C 39 % 88 % 1029,9 hPa 0,0 l/m 7,8 km/h (2 Bft) N 0,00 h 0,0 UV-I 0 W/m -0,4 C -0,1 C 11,8 km/h (2 Bft)
13.03.2016 03:00 21,3 C 1,5 C 39 % 89 % 1029,8 hPa 0,0 l/m 1,8 km/h (1 Bft) N 0,00 h 0,0 UV-I 0 W/m -0,1 C 1,5 C 2,9 km/h (1 Bft)
13.03.2016 04:00 21,3 C 1,5 C 40 % 90 % 1030,0 hPa 0,0 l/m 1,5 km/h (1 Bft) N-NO 0,00 h 0,0 UV-I 0 W/m 0,0 C 1,4 C 2,9 km/h (1 Bft)
13.03.2016 05:00 21,3 C 1,6 C 40 % 90 % 1030,2 hPa 0,0 l/m 1,0 km/h (0 Bft) N-NO 0,00 h 0,0 UV-I 0 W/m 0,1 C 1,6 C 2,2 km/h (1 Bft)
13.03.2016 06:00 21,3 C 1,7 C 40 % 90 % 1030,5 hPa 0,0 l/m 1,7 km/h (1 Bft) N 0,00 h 0,0 UV-I 5 W/m 0,2 C 1,5 C 3,2 km/h (1 Bft)
13.03.2016 07:00 21,3 C 1,9 C 40 % 90 % 1031,0 hPa 0,0 l/m 3,1 km/h (1 Bft) N 0,00 h 0,0 UV-I 13 W/m 0,5 C 1,7 C 5,8 km/h (2 Bft)
13.03.2016 08:00 21,6 C 2,3 C 41 % 90 % 1031,4 hPa 0,0 l/m 5,0 km/h (1 Bft) N-NO 0,00 h 0,6 UV-I 37 W/m 0,9 C 1,8 C 8,4 km/h (2 Bft)
13.03.2016 09:00 21,6 C 3,1 C 40 % 89 % 1031,7 hPa 0,0 l/m 6,5 km/h (2 Bft) N 0,00 h 0,6 UV-I 71 W/m 1,4 C 2,0 C 10,4 km/h (2 Bft)
13.03.2016 10:00 21,7 C 3,8 C 40 % 86 % 1032,1 hPa 0,0 l/m 6,3 km/h (2 Bft) N 0,12 h 1,0 UV-I 109 W/m 1,8 C 2,7 C 10,8 km/h (2 Bft)
13.03.2016 11:00 21,7 C 5,3 C 40 % 81 % 1031,9 hPa 0,0 l/m 5,2 km/h (1 Bft) N 0,35 h 1,3 UV-I 144 W/m 2,2 C 4,3 C 8,4 km/h (2 Bft)
13.03.2016 12:00 21,6 C 6,5 C 40 % 72 % 1031,5 hPa 0,0 l/m 3,2 km/h (1 Bft) N 0,00 h 0,8 UV-I 85 W/m 1,9 C 6,0 C 6,9 km/h (2 Bft)
13.03.2016 13:00 21,5 C 6,9 C 40 % 67 % 1031,1 hPa 0,0 l/m 5,6 km/h (1 Bft) O-NO 0,23 h 1,1 UV-I 127 W/m 1,2 C 6,0 C 11,3 km/h (2 Bft)
13.03.2016 14:00 21,8 C 6,8 C 40 % 66 % 1030,8 hPa 0,0 l/m 6,5 km/h (2 Bft) N-NO 0,02 h 0,7 UV-I 83 W/m 0,9 C 5,6 C 13,3 km/h (3 Bft)
13.03.2016 15:00 21,7 C 6,2 C 40 % 69 % 1030,8 hPa 0,0 l/m 7,8 km/h (2 Bft) O-NO 0,00 h 0,7 UV-I 92 W/m 0,8 C 4,7 C 15,3 km/h (3 Bft)
13.03.2016 16:00 21,5 C 5,8 C 40 % 70 % 1031,0 hPa 0,0 l/m 5,1 km/h (1 Bft) O-NO 0,00 h 0,6 UV-I 58 W/m 0,8 C 5,3 C 10,9 km/h (2 Bft)
13.03.2016 17:00 21,5 C 4,8 C 40 % 73 % 1031,5 hPa 0,0 l/m 7,2 km/h (2 Bft) O-NO 0,00 h 0,0 UV-I 9 W/m 0,4 C 3,4 C 11,8 km/h (2 Bft)
13.03.2016 18:00 21,6 C 3,5 C 41 % 80 % 1032,0 hPa 0,0 l/m 8,2 km/h (2 Bft) N-NO 0,00 h 0,0 UV-I 0 W/m 0,4 C 1,5 C 13,0 km/h (3 Bft)
13.03.2016 19:00 21,8 C 2,2 C 41 % 83 % 1032,3 hPa 0,0 l/m 10,4 km/h (2 Bft) N-NO 0,00 h 0,0 UV-I 0 W/m -0,3 C -1,2 C 15,9 km/h (3 Bft)
13.03.2016 20:00 21,7 C 1,8 C 41 % 85 % 1032,8 hPa 0,0 l/m 8,7 km/h (2 Bft) N-NO 0,00 h 0,0 UV-I 0 W/m -0,4 C -0,4 C 13,7 km/h (3 Bft)
13.03.2016 21:00 21,7 C 1,9 C 40 % 84 % 1033,0 hPa 0,0 l/m 8,0 km/h (2 Bft) N-NO 0,00 h 0,0 UV-I 0 W/m -0,5 C -0,1 C 12,8 km/h (3 Bft)
13.03.2016 22:00 21,8 C 1,5 C 40 % 84 % 1033,3 hPa 0,0 l/m 8,1 km/h (2 Bft) O-NO 0,00 h 0,0 UV-I 0 W/m -0,9 C -0,5 C 14,8 km/h (3 Bft)
13.03.2016 23:00 21,9 C 1,1 C 40 % 84 % 1033,1 hPa 0,0 l/m 4,4 km/h (1 Bft) O-NO 0,00 h 0,0 UV-I 0 W/m -1,3 C 0,4 C 9,4 km/h (2 Bft)
Min-Datum _ 10.03.16 09.03.16 12.03.16 08.03.16 07.03.16 - 07.03.16 - - - - 09.03.16 13.03.16 07.03.16
_ Min-Zeit 04:22 05:51 14:25 15:46 03:01 - 00:11 - - - - 05:51 22:47 00:15
Minimum _ 21,2 C -3,7 C 34 % 58 % 1002,8 hPa - 0,0 km/h (0 Bft) - - - - -4,2 C -6,0 C 0,0 km/h (0 Bft)
Max-Datum _ 07.03.16 10.03.16 08.03.16 08.03.16 13.03.16 07.03.16 09.03.16 - 09.03.16 10.03.16 07.03.16 08.03.16 13.03.16 09.03.16
_ Max-Zeit 16:25 12:37 08:48 07:16 22:10 15:11 13:58 - 15:11 12:21 12:42 12:09 13:38 13:22
Maximum _ 23,6 C 7,3 C 47 % 97 % 1033,4 hPa 0,6 l/m 19,3 km/h
SO (3 Bft)
- 0,03 h 2,9 UV-I 752 W/m 2,8 C 7,2 C 29,0 km/h
O-SO (5 Bft)
Durchschnitt _ 22,1 C 2,1 C 41 % 84 % 1019,1 hPa #0,8 l/m 3,1 km/h (1 Bft) N #31:54 h 1,1 UV-I 147 W/m -0,4 C 1,6 C 5,8 km/h (2 Bft)